sat.trackr.live / text

‹ back to catalog

STARLINK-36297

NORAD 67671 · 2026-022Z

PAYLOAD ACTIVE UNKNOWN

§ Identity

Operator
Country
US
Launch date
2026-02-02
Launch site
AFWTR
Launch vehicle
Mass (kg)
RCS (m²)

Purposes: comms

External: N2YO · Heavens-Above · Gunter

§ Orbital elements

Epoch: 2026-09-19T08:09:59.386752Z

Period
93.91 min
Inclination
97.2839°
Eccentricity
0.0001721
Mean motion
15.33453008 rev/d
Perigee alt
464.3 km
Apogee alt
466.7 km
Semi-major
6,843.7 km
B*
4.4318e-4
RAAN
293.9854°
Arg perigee
91.0931°
Mean anomaly
269.0509°
Rev number
3,525

§ Raw data

STARLINK-362971 67671U 26022Z   26262.34027068  .00014263  00000+0  44318-3 0  99952 67671  97.2839 293.9854 0001721  91.0931 269.0509 15.33453008 35259

JSON: /api/v1/satellites/67671 · /tle

For live sub-satellite position, see the globe view (requires WebGL).

§ Visibility from observer

Set your observer location to see the next 7 days of passes ≥ 10°. The values pass through the URL so the page stays shareable.

No JS? Fill the form by hand. The geolocation button needs JavaScript.